This is the latest recevied weather packets stored in our database for station/object LX0WX-13. If no packets are shown the sender has not sent any weather packets the latest 10 day(s).
| Time | Temp. | Humidity | Pressure | Rain* | Wind** | Luminosity | Snow |
|---|---|---|---|---|---|---|---|
| 1777202181 | 19.44° C | 25% | 1019.1 hPa | 0 mm | - | - | - |
| 1777201882 | 19.44° C | 25% | 1019 hPa | 0 mm | - | - | - |
| 1777201582 | 19.44° C | 26% | 1019.1 hPa | 0 mm | - | - | - |
| 1777201282 | 18.33° C | 27% | 1019 hPa | 0 mm | - | - | - |
| 1777200982 | 17.78° C | 26% | 1019.2 hPa | 0 mm | - | - | - |
| 1777200682 | 18.33° C | 26% | 1019.2 hPa | 0 mm | - | - | - |
| 1777200382 | 18.33° C | 26% | 1019.1 hPa | 0 mm | - | - | - |
| 1777200081 | 19.44° C | 25% | 1019.3 hPa | 0 mm | - | - | - |
| 1777199782 | 18.89° C | 26% | 1019.2 hPa | 0 mm | - | - | - |
| 1777199482 | 19.44° C | 25% | 1019.1 hPa | 0 mm | - | - | - |
| 1777199182 | 20° C | 24% | 1019.3 hPa | 0 mm | - | - | - |
| 1777198882 | 20° C | 25% | 1019.4 hPa | 0 mm | - | - | - |
| 1777198582 | 19.44° C | 26% | 1019.4 hPa | 0 mm | - | - | - |
| 1777198282 | 20° C | 25% | 1019.3 hPa | 0 mm | - | - | - |
| 1777197982 | 19.44° C | 27% | 1019.4 hPa | 0 mm | - | - | - |
| 1777197682 | 19.44° C | 28% | 1019.4 hPa | 0 mm | - | - | - |
| 1777197382 | 19.44° C | 29% | 1019.4 hPa | 0 mm | - | - | - |
| 1777197082 | 18.89° C | 28% | 1019.5 hPa | 0 mm | - | - | - |
| 1777196782 | 19.44° C | 27% | 1019.3 hPa | 0 mm | - | - | - |
| 1777196482 | 18.89° C | 30% | 1019.4 hPa | 0 mm | - | - | - |
| 1777196182 | 18.89° C | 30% | 1019.4 hPa | 0 mm | - | - | - |
| 1777195882 | 18.33° C | 30% | 1019.5 hPa | 0 mm | - | - | - |
| 1777195582 | 18.33° C | 30% | 1019.4 hPa | 0 mm | - | - | - |
| 1777195282 | 18.89° C | 29% | 1019.4 hPa | 0 mm | - | - | - |
| 1777194982 | 18.89° C | 30% | 1019.4 hPa | 0 mm | - | - | - |
* Rain latest hour (hover to see other rain measurements)
** Current wind speed in m/s (hover to see current wind gust speed)